Tracking 25734 objects as of 28-May-2022
HD Live streaming from Space Station
objects crossing your sky now

CZ-3C DEB

Track CZ-3C DEB now!


NORAD ID: 39349
Int'l Code: 2010-057P
Perigee: 501.1 km
Apogee: 35,408.5 km
Inclination: 19.9 °
Period: 629.3 minutes
Semi major axis: 24325 km
RCS: 0.3306 m2 (medium)
Launch date: October 31, 2010
Source: People's Republic of China (PRC)
Launch site: Xichang Space Center, China (XSC)

Note: This is SATELLITE DEBRIS
aabbcc
Your satellite tracking list
Your tracking list is empty




NASA's NSSDC Master Catalog

Two Line Element Set (TLE):
1 39349U 10057P   22147.34607128  .00000109  00000-0  11563-2 0  9996
2 39349  19.8980 173.9891 7174958  90.4236   1.2782  2.28824160 63729
Source of the keplerian elements: AFSPC